Regional Weather Roundup
Issued by NWS

Home | Current Version | Previous Version | Graphics & Text | Print | Product List | Glossary On
Versions: 1 2 3 4 5 6 7 8 9 10 11 12 13 14 15 16 17 18 19 20 21 22 23 24 25 26 27 28 29 30 31 32 33 34 35 36 37 38 39 40 41 42 43 44 45 46 47 48 49 50
000
ASUS43 KDTX 231410
RWRMI
MICHIGAN HOURLY REGIONAL WEATHER ROUNDUP
NATIONAL WEATHER SERVICE DETROIT/PONTIAC MI
ISSUED BY NATIONAL WEATHER SERVICE GRAND RAPIDS MI
900 AM EST MON JAN 23 2017

NOTE: "FAIR" INDICATES FEW OR NO CLOUDS BELOW 12,000 FEET WITH NO
SIGNIFICANT WEATHER AND/OR OBSTRUCTION TO VISIBILITY.

MIZ047>049-052>055-059>063-066>070-074>076-081>083-231500-
SOUTHEAST LOWER MICHIGAN

CITY           SKY/WX    TMP DP  RH WIND       PRES   REMARKS
ADRIAN         CLOUDY    41  41 100 E8        29.66R FOG
ALMA           FOG       38  38  99 N5        29.71R VSB 1/2 WCI  34
ANN ARBOR      LGT RAIN  41  41 100 N7        29.66R FOG
BAD AXE        CLOUDY    37  37 100 E3        29.71R FOG
DETROIT CITY   CLOUDY    40  40 100 NE7       29.68R FOG
DETROIT        LGT RAIN  42  41  96 NE6       29.67R FOG
FLINT          FOG       39  38  96 N6        29.69R VSB 1   WCI  35
GROSSE ILE     LGT RAIN  39  39 100 NE9       29.66R WCI  33
HILLSDALE      FOG       39  39 100 N5        29.64R VSB 1/2
HOWELL         FOG       39  38  97 N5        29.67R VSB 1/4

CITY           SKY/WX    TMP DP  RH WIND       PRES   REMARKS
JACKSON        CLOUDY    40  39  97 N7        29.66R FOG
LANSING        FOG       38  36  92 N7        29.69R VSB 1   WCI  33
MASON          CLOUDY    38  38 100 N3        29.68R FOG
MONROE         DRIZZLE   40  40 100 NE9       29.65R WCI  35
MT. CLEMENS    LGT RAIN  38  38 100 NE5       29.67R FOG     WCI  35
PONTIAC        LGT RAIN  38  36  92 NE5       29.66R VSB 1   WCI  34
PORT HOPE        N/A     36  36 100 E7        29.70R WCI  30
PORT HURON     DRIZZLE   36  36 100 N5        29.69R WCI  32
TRI CITIES     FOG       36  36 100 N8        29.71R VSB 1/4 WCI  30
YPSILANTI      CLOUDY    42  42 100 NE8       29.67R FOG
$$
MIZ043>046-050>051-056>058-064>065-071>073-077>080-231500-
SOUTHWEST LOWER MICHIGAN

CITY           SKY/WX    TMP DP  RH WIND       PRES   REMARKS
BATTLE CREEK   CLOUDY    40  40 100 N7        29.68R FOG
BENTON HARBOR  CLOUDY    39  37  92 VRB5      29.72R FOG
BIG RAPIDS     CLOUDY    38  37  98 CALM      29.70S FOG
COLDWATER      CLOUDY    40  40 100 N10       29.65S FOG     WCI  34
HOLLAND        CLOUDY    36  35  96 NW6       29.72R WCI  31
GRAND RAPIDS   DRIZZLE   40  38  93 N8        29.70R FOG     WCI  34
KALAMAZOO      FOG       41  39  93 N9        29.69R VSB 1/2
MARSHALL       CLOUDY    39  39  98 CALM      29.67R FOG
MOUNT PLEASANT FOG       38  37  99 N3        29.71R VSB 3/4
MUSKEGON       FOG       37  36  96 N9        29.73R VSB 1/2 WCI  30
STURGIS        FOG       40  40 100 N8        29.66R VSB 3/4 WCI  35
$$
MIZ016>042-231500-
NORTHERN LOWER MICHIGAN

CITY           SKY/WX    TMP DP  RH WIND       PRES   REMARKS
ALPENA         CLOUDY    37  35  92 E5        29.76R FOG     WCI  33
BEAVER ISLAND  FOG       35  35 100 E5        29.74S VSB 3/4 WCI  31
BELLAIRE       FOG       34  33  99 CALM      29.74R VSB<1/4
CADILLAC       FOG       37  37  97 NW3       29.70R VSB 1/4
CHARLEVOIX     FOG       35  35 100 CALM      29.77R VSB 1/2
GAYLORD        FOG       37  34  89 NE3       29.71S VSB 1/4
HOUGHTON LAKE  CLOUDY    37  36  96 NE3       29.71R FOG
MANISTEE       FOG       36  36 100 CALM      29.74R VSB<1/4
OSCODA         CLOUDY    37  37  98 N6        29.73R FOG     WCI  32
PELLSTON       CLOUDY    36  34  92 E8        29.76R FOG     WCI  30
TRAVERSE CITY  FOG       37  37 100 CALM      29.73R VSB 1/8
LUDINGTON      FOG       37  37 100 N3        29.74R VSB 1/4
$$
MIZ007>008-015-231500-
EASTERN UPPER MICHIGAN

CITY           SKY/WX    TMP DP  RH WIND       PRES   REMARKS
KINROSS        MIX PCPN  34  34 100 E8        29.78R VSB 1   WCI  27
MACKINAC ISLAN FOG       35  35 100 E13G21    29.76R VSB 1/2 WCI  26
NEWBERRY       FOG       34  33  96 E5        29.76R VSB 1/2 WCI  29
S. S. MARIE    CLOUDY    36  35  96 E3        29.78R FOG
$$
MIZ004>006-011>014-085-231500-
CENTRAL UPPER MICHIGAN

CITY           SKY/WX    TMP DP  RH WIND       PRES   REMARKS
MANISTIQUE     LGT RAIN  34  33  97 NE5       29.75S VSB 1   WCI  30
ESCANABA       FOG       36  35  96 N3        29.76R VSB 1/4
SAWYER-GWINN   FOG       34  34 100 NE5       29.75R VSB 1/2 WCI  30
$$
MIZ001>003-009>011-084-231500-
WESTERN UPPER MICHIGAN

CITY           SKY/WX    TMP DP  RH WIND       PRES   REMARKS
IRON MOUNTAIN  CLOUDY    34  31  88 NW3       29.74R
HOUGHTON       FOG       34  33  96 W6        29.73R VSB 1/4 WCI  29
COPPER HARBOR    N/A     36  35  96 N6        29.74S WCI  31
IRONWOOD       FOG       34  33  96 CALM      29.75R VSB 1/4
$$

ABBREVIATIONS USED IN REMARKS
   TC - TEMPERATURE IN CELSIUS
  WCI - WIND CHILL INDEX
   HX - HEAT INDEX
  VSB - VISIBILITY





USA.gov is the U.S. government's official web portal to all federal, state and local government web resources and services.